When you browse on this site, cookies collect data to enhance your experience and personalize the content and advertising you see.
Visit our Privacy Policy to learn more. By continuing to use the site, you agree to this use of cookies and data.

Tiempo cada hora Bobo-Dioulasso

Hoy, 20 Septiembre, Domingo

Tiempo Temperatura Precipitaciones Viento Presión Humedad
00:00 +26°C° 0 mm 1 mps 724 mmHg 81%
01:00 +26°C° 0 mm 1 mps 723 mmHg 83%
02:00 +25°C° 0 mm 1 mps 722 mmHg 84%
03:00 +25°C° 0 mm 1 mps 722 mmHg 85%
04:00 +25°C° 0 mm 1 mps 722 mmHg 86%
05:00 +25°C° 0 mm 2 mps 722 mmHg 87%
06:00 +24°C° 0 mm 2 mps 723 mmHg 88%
07:00 +26°C° 0 mm 2 mps 723 mmHg 83%
08:00 +28°C° 0 mm 2 mps 724 mmHg 78%
09:00 +29°C° 0 mm 2 mps 724 mmHg 74%
10:00 +30°C° 0 mm 2 mps 724 mmHg 68%
11:00 +32°C° 0 mm 2 mps 724 mmHg 63%
12:00 +34°C° 0 mm 2 mps 724 mmHg 58%
13:00 +34°C° 0.1 mm 2 mps 723 mmHg 57%
14:00 +35°C° 0.1 mm 2 mps 722 mmHg 56%
15:00 +35°C° 0.1 mm 2 mps 721 mmHg 55%
16:00 +32°C° 1.8 mm 1 mps 721 mmHg 64%
17:00 +30°C° 1.8 mm 1 mps 721 mmHg 73%
18:00 +28°C° 1.8 mm 1 mps 721 mmHg 82%
19:00 +28°C° 0.2 mm 2 mps 722 mmHg 84%
20:00 +27°C° 0.2 mm 2 mps 722 mmHg 86%
21:00 +26°C° 0.2 mm 2 mps 723 mmHg 88%
22:00 +26°C° 0.2 mm 2 mps 723 mmHg 89%
23:00 +25°C° 0.2 mm 3 mps 723 mmHg 89%

Mañana, 21 Septiembre, Lunes

Tiempo Temperatura Precipitaciones Viento Presión Humedad
00:00 +25°C° 0.2 mm 3 mps 723 mmHg 90%
01:00 +25°C° 0 mm 3 mps 722 mmHg 92%
02:00 +25°C° 0 mm 3 mps 722 mmHg 93%
03:00 +23°C° 0 mm 4 mps 722 mmHg 94%
04:00 +23°C° 0 mm 4 mps 722 mmHg 94%
05:00 +23°C° 0 mm 4 mps 722 mmHg 95%
06:00 +24°C° 0 mm 3 mps 722 mmHg 95%
07:00 +25°C° 0 mm 3 mps 723 mmHg 91%
08:00 +26°C° 0 mm 3 mps 724 mmHg 88%
09:00 +27°C° 0 mm 3 mps 724 mmHg 84%
10:00 +28°C° 0 mm 3 mps 724 mmHg 80%
11:00 +29°C° 0 mm 3 mps 724 mmHg 75%
12:00 +30°C° 0 mm 3 mps 724 mmHg 71%
13:00 +31°C° 0.1 mm 3 mps 724 mmHg 70%
14:00 +31°C° 0.1 mm 2 mps 723 mmHg 69%
15:00 +31°C° 0.1 mm 2 mps 722 mmHg 68%
16:00 +30°C° 0 mm 2 mps 722 mmHg 72%
17:00 +29°C° 0 mm 2 mps 722 mmHg 77%
18:00 +28°C° 0 mm 1 mps 722 mmHg 82%
19:00 +28°C° 0.2 mm 1 mps 722 mmHg 85%
20:00 +27°C° 0.2 mm 1 mps 723 mmHg 87%
21:00 +26°C° 0.2 mm 1 mps 723 mmHg 90%
22:00 +26°C° 0 mm 2 mps 723 mmHg 92%
23:00 +25°C° 0 mm 2 mps 723 mmHg 93%

Pasado mañana, 22 Septiembre, Martes

Tiempo Temperatura Precipitaciones Viento Presión Humedad
00:00 +25°C° 0 mm 2 mps 723 mmHg 94%
01:00 +25°C° 0.3 mm 2 mps 723 mmHg 95%
02:00 +25°C° 0.3 mm 2 mps 723 mmHg 96%
03:00 +24°C° 0.3 mm 2 mps 722 mmHg 96%
04:00 +24°C° 0 mm 2 mps 723 mmHg 96%
05:00 +24°C° 0 mm 3 mps 723 mmHg 96%
06:00 +24°C° 0 mm 3 mps 723 mmHg 97%
07:00 +25°C° 0 mm 3 mps 723 mmHg 92%
08:00 +26°C° 0 mm 3 mps 724 mmHg 88%
09:00 +27°C° 0 mm 3 mps 725 mmHg 84%
10:00 +29°C° 0.4 mm 3 mps 724 mmHg 77%
11:00 +30°C° 0.4 mm 3 mps 724 mmHg 71%
12:00 +33°C° 0.4 mm 3 mps 724 mmHg 65%
13:00 +32°C° 0.2 mm 2 mps 723 mmHg 62%
14:00 +32°C° 0.2 mm 2 mps 723 mmHg 59%
15:00 +34°C° 0.2 mm 2 mps 722 mmHg 56%
16:00 +31°C° 0 mm 1 mps 722 mmHg 62%
17:00 +30°C° 0 mm 1 mps 722 mmHg 68%
18:00 +29°C° 0 mm 1 mps 722 mmHg 74%
19:00 +28°C° 0 mm 1 mps 722 mmHg 76%
20:00 +27°C° 0 mm 1 mps 723 mmHg 77%
21:00 +26°C° 0 mm 1 mps 724 mmHg 79%
22:00 +26°C° 0.2 mm 1 mps 724 mmHg 80%
23:00 +26°C° 0.2 mm 1 mps 724 mmHg 82%

23 Septiembre, Miércoles

Tiempo Temperatura Precipitaciones Viento Presión Humedad
00:00 +26°C° 0.2 mm 1 mps 724 mmHg 84%
01:00 +25°C° 0.3 mm 1 mps 723 mmHg 85%
02:00 +25°C° 0.3 mm 1 mps 723 mmHg 87%
03:00 +24°C° 0.3 mm 1 mps 722 mmHg 89%
04:00 +24°C° 2.1 mm 2 mps 723 mmHg 91%
05:00 +24°C° 2.1 mm 2 mps 723 mmHg 92%
06:00 +24°C° 2.1 mm 3 mps 723 mmHg 94%
07:00 +25°C° 0.2 mm 2 mps 724 mmHg 89%
08:00 +25°C° 0.2 mm 2 mps 724 mmHg 85%
09:00 +26°C° 0.2 mm 1 mps 725 mmHg 81%
10:00 +28°C° 0 mm 2 mps 724 mmHg 76%
11:00 +29°C° 0 mm 2 mps 724 mmHg 71%
12:00 +31°C° 0 mm 3 mps 724 mmHg 66%
13:00 +30°C° 2.4 mm 3 mps 723 mmHg 72%
14:00 +28°C° 2.4 mm 3 mps 723 mmHg 79%
15:00 +27°C° 2.4 mm 3 mps 722 mmHg 85%
16:00 +26°C° 0.1 mm 2 mps 722 mmHg 85%
17:00 +26°C° 0.1 mm 1 mps 722 mmHg 86%
18:00 +23°C° 0.1 mm 0 mps 722 mmHg 87%
19:00 +23°C° 0 mm 0 mps 722 mmHg 87%
20:00 +23°C° 0 mm 0 mps 723 mmHg 87%
21:00 +22°C° 0 mm 0 mps 723 mmHg 86%
22:00 +22°C° 0 mm 0 mps 723 mmHg 87%
23:00 +22°C° 0 mm 0 mps 723 mmHg 88%

24 Septiembre, Jueves

Tiempo Temperatura Precipitaciones Viento Presión Humedad
00:00 +21°C° 0 mm 0 mps 723 mmHg 89%
01:00 +21°C° 0.1 mm 0 mps 723 mmHg 90%
02:00 +23°C° 0.1 mm 1 mps 723 mmHg 91%
03:00 +23°C° 0.1 mm 1 mps 723 mmHg 91%
04:00 +23°C° 0.1 mm 1 mps 723 mmHg 93%
05:00 +23°C° 0.1 mm 1 mps 723 mmHg 94%
06:00 +23°C° 0.1 mm 1 mps 723 mmHg 95%
07:00 +24°C° 0.3 mm 2 mps 724 mmHg 92%
08:00 +26°C° 0.3 mm 3 mps 724 mmHg 90%
09:00 +27°C° 0.3 mm 3 mps 725 mmHg 87%
10:00 +28°C° 0 mm 3 mps 724 mmHg 80%
11:00 +30°C° 0 mm 3 mps 724 mmHg 73%
12:00 +31°C° 0 mm 3 mps 724 mmHg 67%
13:00 +33°C° 0 mm 3 mps 723 mmHg 64%
14:00 +32°C° 0 mm 2 mps 722 mmHg 62%
15:00 +32°C° 0 mm 2 mps 722 mmHg 59%
16:00 +31°C° 0 mm 1 mps 722 mmHg 64%
17:00 +30°C° 0 mm 1 mps 722 mmHg 69%
18:00 +29°C° 0 mm 1 mps 722 mmHg 75%
19:00 +28°C° 0 mm 1 mps 722 mmHg 76%
20:00 +28°C° 0 mm 1 mps 723 mmHg 78%
21:00 +27°C° 0 mm 1 mps 724 mmHg 80%
22:00 +26°C° 1.1 mm 1 mps 724 mmHg 83%
23:00 +26°C° 1.1 mm 1 mps 723 mmHg 86%

25 Septiembre, Viernes

Tiempo Temperatura Precipitaciones Viento Presión Humedad
00:00 +25°C° 1.1 mm 1 mps 723 mmHg 89%
01:00 +25°C° 0.6 mm 1 mps 723 mmHg 89%
02:00 +25°C° 0.6 mm 2 mps 723 mmHg 89%
03:00 +25°C° 0.6 mm 2 mps 722 mmHg 89%
04:00 +25°C° 0 mm 2 mps 723 mmHg 90%
05:00 +24°C° 0 mm 2 mps 723 mmHg 91%
06:00 +24°C° 0 mm 2 mps 723 mmHg 92%
07:00 +26°C° 0 mm 2 mps 723 mmHg 88%
08:00 +27°C° 0 mm 2 mps 724 mmHg 84%
09:00 +29°C° 0 mm 3 mps 724 mmHg 79%
10:00 +30°C° 0 mm 2 mps 724 mmHg 72%
11:00 +32°C° 0 mm 2 mps 724 mmHg 65%
12:00 +33°C° 0 mm 1 mps 723 mmHg 58%
13:00 +33°C° 0.1 mm 1 mps 723 mmHg 58%
14:00 +33°C° 0.1 mm 1 mps 723 mmHg 58%
15:00 +33°C° 0.1 mm 1 mps 722 mmHg 58%
16:00 +31°C° 3.6 mm 3 mps 722 mmHg 69%
17:00 +28°C° 3.6 mm 5 mps 722 mmHg 79%
18:00 +24°C° 3.6 mm 8 mps 722 mmHg 90%
19:00 +24°C° 2.3 mm 6 mps 723 mmHg 91%
20:00 +23°C° 2.3 mm 5 mps 723 mmHg 92%
21:00 +24°C° 2.3 mm 3 mps 723 mmHg 93%
22:00 +24°C° 0 mm 3 mps 723 mmHg 92%
23:00 +24°C° 0 mm 2 mps 722 mmHg 91%
Mostrar más